Year,Month,Day,Hour,Minute,Value (Times are PST for temperature in C)
2015,03,04,00,00,1.60
2015,03,04,00,01,1.60
2015,03,04,00,02,1.50
2015,03,04,00,03,1.40
2015,03,04,00,04,1.30
2015,03,04,00,05,1.20
2015,03,04,00,06,1.10
2015,03,04,00,07,1.00
2015,03,04,00,08,0.90
2015,03,04,00,09,0.80
2015,03,04,00,10,0.80
2015,03,04,00,11,0.70
2015,03,04,00,12,0.60
2015,03,04,00,13,0.60
2015,03,04,00,14,0.50
2015,03,04,00,15,0.50
2015,03,04,00,16,0.40
2015,03,04,00,17,0.40
2015,03,04,00,18,0.40
2015,03,04,00,19,0.30
2015,03,04,00,20,0.30
2015,03,04,00,21,0.30
2015,03,04,00,22,0.30
2015,03,04,00,23,0.30
2015,03,04,00,24,0.30
2015,03,04,00,25,0.40
2015,03,04,00,26,0.40
2015,03,04,00,27,0.40
2015,03,04,00,28,0.40
2015,03,04,00,29,0.40
2015,03,04,00,30,0.40
2015,03,04,00,31,0.40
2015,03,04,00,32,0.40
2015,03,04,00,33,0.40
2015,03,04,00,34,0.40
2015,03,04,00,35,0.30
2015,03,04,00,36,0.30
2015,03,04,00,37,0.30
2015,03,04,00,38,0.20
2015,03,04,00,39,0.20
2015,03,04,00,40,0.10
2015,03,04,00,41,0.10
2015,03,04,00,42,0.10
2015,03,04,00,43,0.10
2015,03,04,00,44,0.10
2015,03,04,00,45,0.10
2015,03,04,00,46,0.10
2015,03,04,00,47,0.10
2015,03,04,00,48,0.10
2015,03,04,00,49,0.10
2015,03,04,00,50,0.10
2015,03,04,00,51,0.10
2015,03,04,00,52,0.10
2015,03,04,00,53,0.10
2015,03,04,00,54,0.10
2015,03,04,00,55,0.30
2015,03,04,00,56,0.40
2015,03,04,00,57,0.50
2015,03,04,00,58,0.60
2015,03,04,00,59,0.80
2015,03,04,01,00,0.90
2015,03,04,01,01,1.00
2015,03,04,01,02,1.10
2015,03,04,01,03,1.20
2015,03,04,01,04,1.20
2015,03,04,01,05,1.30
2015,03,04,01,06,1.40
2015,03,04,01,07,1.60
2015,03,04,01,08,1.60
2015,03,04,01,09,1.70
2015,03,04,01,10,1.80
2015,03,04,01,11,1.80
2015,03,04,01,12,1.80
2015,03,04,01,13,1.90
2015,03,04,01,14,1.90
2015,03,04,01,15,1.80
2015,03,04,01,16,1.80
2015,03,04,01,17,1.80
2015,03,04,01,18,1.80
2015,03,04,01,19,1.80
2015,03,04,01,20,1.80
2015,03,04,01,21,1.80
2015,03,04,01,22,1.80
2015,03,04,01,23,1.80
2015,03,04,01,24,1.80
2015,03,04,01,25,1.90
2015,03,04,01,26,1.90
2015,03,04,01,27,1.90
2015,03,04,01,28,1.90
2015,03,04,01,29,1.80
2015,03,04,01,30,1.80
2015,03,04,01,31,1.70
2015,03,04,01,32,1.60
2015,03,04,01,33,1.60
2015,03,04,01,34,1.50
2015,03,04,01,35,1.50
2015,03,04,01,36,1.40
2015,03,04,01,37,1.40
2015,03,04,01,38,1.40
2015,03,04,01,39,1.40
2015,03,04,01,40,1.30
2015,03,04,01,41,1.30
2015,03,04,01,42,1.10
2015,03,04,01,43,1.00
2015,03,04,01,44,0.90
2015,03,04,01,45,0.80
2015,03,04,01,46,0.80
2015,03,04,01,47,0.70
2015,03,04,01,48,0.60
2015,03,04,01,49,0.60
2015,03,04,01,50,0.50
2015,03,04,01,51,0.50
2015,03,04,01,52,0.50
2015,03,04,01,53,0.50
2015,03,04,01,54,0.60
2015,03,04,01,55,0.60
2015,03,04,01,56,0.70
2015,03,04,01,57,0.80
2015,03,04,01,58,0.80
2015,03,04,01,59,0.90
2015,03,04,02,00,1.00
2015,03,04,02,01,1.00
2015,03,04,02,02,1.10
2015,03,04,02,03,1.20
2015,03,04,02,04,1.20
2015,03,04,02,05,1.30
2015,03,04,02,06,1.30
2015,03,04,02,07,1.40
2015,03,04,02,08,1.40
2015,03,04,02,09,1.50
2015,03,04,02,10,1.50
2015,03,04,02,11,1.60
2015,03,04,02,12,1.60
2015,03,04,02,13,1.70
2015,03,04,02,14,1.70
2015,03,04,02,15,1.70
2015,03,04,02,16,1.80
2015,03,04,02,17,1.80
2015,03,04,02,18,1.80
2015,03,04,02,19,1.80
2015,03,04,02,20,1.80
2015,03,04,02,21,1.90
2015,03,04,02,22,1.90
2015,03,04,02,23,1.90
2015,03,04,02,24,1.90
2015,03,04,02,25,1.90
2015,03,04,02,26,1.90
2015,03,04,02,27,1.90
2015,03,04,02,28,1.90
2015,03,04,02,29,1.90
2015,03,04,02,30,1.90
2015,03,04,02,31,1.90
2015,03,04,02,32,1.90
2015,03,04,02,33,1.90
2015,03,04,02,34,1.90
2015,03,04,02,35,1.90
2015,03,04,02,36,2.00
2015,03,04,02,37,2.00
2015,03,04,02,38,2.00
2015,03,04,02,39,2.00
2015,03,04,02,40,2.00
2015,03,04,02,41,1.90
2015,03,04,02,42,1.90
2015,03,04,02,43,1.80
2015,03,04,02,44,1.80
2015,03,04,02,45,1.80
2015,03,04,02,46,1.80
2015,03,04,02,47,1.80
2015,03,04,02,48,1.80
2015,03,04,02,49,1.80
2015,03,04,02,50,1.70
2015,03,04,02,51,1.70
2015,03,04,02,52,1.60
2015,03,04,02,53,1.60
2015,03,04,02,54,1.50
2015,03,04,02,55,1.50
2015,03,04,02,56,1.40
2015,03,04,02,57,1.40
2015,03,04,02,58,1.40
2015,03,04,02,59,1.50
2015,03,04,03,00,1.50
2015,03,04,03,01,1.50
2015,03,04,03,02,1.50
2015,03,04,03,03,1.50
2015,03,04,03,04,1.50
2015,03,04,03,05,1.50
2015,03,04,03,06,1.50
2015,03,04,03,07,1.40
2015,03,04,03,08,1.40
2015,03,04,03,09,1.40
2015,03,04,03,10,1.40
2015,03,04,03,11,1.50
2015,03,04,03,12,1.50
2015,03,04,03,13,1.60
2015,03,04,03,14,1.60
2015,03,04,03,15,1.70
2015,03,04,03,16,1.80
2015,03,04,03,17,1.90
2015,03,04,03,18,2.00
2015,03,04,03,19,2.10
2015,03,04,03,20,2.20
2015,03,04,03,21,2.20
2015,03,04,03,22,2.20
2015,03,04,03,23,2.20
2015,03,04,03,24,2.20
2015,03,04,03,25,2.10
2015,03,04,03,26,2.10
2015,03,04,03,27,2.00
2015,03,04,03,28,2.00
2015,03,04,03,29,1.90
2015,03,04,03,30,1.90
2015,03,04,03,31,1.90
2015,03,04,03,32,1.90
2015,03,04,03,33,2.00
2015,03,04,03,34,2.00
2015,03,04,03,35,2.00
2015,03,04,03,36,2.00
2015,03,04,03,37,2.10
2015,03,04,03,38,2.10
2015,03,04,03,39,2.10
2015,03,04,03,40,2.10
2015,03,04,03,41,2.00
2015,03,04,03,42,2.00
2015,03,04,03,43,1.90
2015,03,04,03,44,1.80
2015,03,04,03,45,1.70
2015,03,04,03,46,1.70
2015,03,04,03,47,1.60
2015,03,04,03,48,1.60
2015,03,04,03,49,1.60
2015,03,04,03,50,1.50
2015,03,04,03,51,1.50
2015,03,04,03,52,1.40
2015,03,04,03,53,1.40
2015,03,04,03,54,1.30
2015,03,04,03,55,1.30
2015,03,04,03,56,1.30
2015,03,04,03,57,1.30
2015,03,04,03,58,1.20
2015,03,04,03,59,1.20
2015,03,04,04,00,1.20
2015,03,04,04,01,1.20
2015,03,04,04,02,1.20
2015,03,04,04,03,1.10
2015,03,04,04,04,1.10
2015,03,04,04,05,1.10
2015,03,04,04,06,1.10
2015,03,04,04,07,1.20
2015,03,04,04,08,1.20
2015,03,04,04,09,1.30
2015,03,04,04,10,1.30
2015,03,04,04,11,1.30
2015,03,04,04,12,1.30
2015,03,04,04,13,1.30
2015,03,04,04,14,1.30
2015,03,04,04,15,1.30
2015,03,04,04,16,1.20
2015,03,04,04,17,1.20
2015,03,04,04,18,1.10
2015,03,04,04,19,1.10
2015,03,04,04,20,1.00
2015,03,04,04,21,1.00
2015,03,04,04,22,0.90
2015,03,04,04,23,0.90
2015,03,04,04,24,0.80
2015,03,04,04,25,0.80
2015,03,04,04,26,0.80
2015,03,04,04,27,0.70
2015,03,04,04,28,0.60
2015,03,04,04,29,0.60
2015,03,04,04,30,0.60
2015,03,04,04,31,0.50
2015,03,04,04,32,0.50
2015,03,04,04,33,0.50
2015,03,04,04,34,0.50
2015,03,04,04,35,0.50
2015,03,04,04,36,0.40
2015,03,04,04,37,0.40
2015,03,04,04,38,0.40
2015,03,04,04,39,0.40
2015,03,04,04,40,0.40
2015,03,04,04,41,0.20
2015,03,04,04,42,0.20
2015,03,04,04,43,0.20
2015,03,04,04,44,0.20
2015,03,04,04,45,0.20
2015,03,04,04,46,0.10
2015,03,04,04,47,0.10
2015,03,04,04,48,0.20
2015,03,04,04,49,0.20
2015,03,04,04,50,0.20
2015,03,04,04,51,0.20
2015,03,04,04,52,0.30
2015,03,04,04,53,0.30
2015,03,04,04,54,0.30
2015,03,04,04,55,0.20
2015,03,04,04,56,0.20
2015,03,04,04,57,0.10
2015,03,04,04,58,0.10
2015,03,04,04,59,0.10
2015,03,04,05,00,0.10
2015,03,04,05,01,0.10
2015,03,04,05,02,0.10
2015,03,04,05,03,0.10
2015,03,04,05,04,0.10
2015,03,04,05,05,0.10
2015,03,04,05,06,0.10
2015,03,04,05,07,0.10
2015,03,04,05,08,0.10
2015,03,04,05,09,0.10
2015,03,04,05,10,0.10
2015,03,04,05,11,0.10
2015,03,04,05,12,0.10
2015,03,04,05,13,0.10
2015,03,04,05,14,0.10
2015,03,04,05,15,0.10
2015,03,04,05,16,0.10
2015,03,04,05,17,0.10
2015,03,04,05,18,0.10
2015,03,04,05,19,0.10
2015,03,04,05,20,0.20
2015,03,04,05,21,0.20
2015,03,04,05,22,0.30
2015,03,04,05,23,0.40
2015,03,04,05,24,0.40
2015,03,04,05,25,0.50
2015,03,04,05,26,0.50
2015,03,04,05,27,0.60
2015,03,04,05,28,0.60
2015,03,04,05,29,0.70
2015,03,04,05,30,0.70
2015,03,04,05,31,0.80
2015,03,04,05,32,0.80
2015,03,04,05,33,0.80
2015,03,04,05,34,0.80
2015,03,04,05,35,0.80
2015,03,04,05,36,0.80
2015,03,04,05,37,0.80
2015,03,04,05,38,0.80
2015,03,04,05,39,0.80
2015,03,04,05,40,0.80
2015,03,04,05,41,0.90
2015,03,04,05,42,0.90
2015,03,04,05,43,0.90
2015,03,04,05,44,0.90
2015,03,04,05,45,0.90
2015,03,04,05,46,0.90
2015,03,04,05,47,0.90
2015,03,04,05,48,0.90
2015,03,04,05,49,1.00
2015,03,04,05,50,1.00
2015,03,04,05,51,1.00
2015,03,04,05,52,1.00
2015,03,04,05,53,1.00
2015,03,04,05,54,1.00
2015,03,04,05,55,1.00
2015,03,04,05,56,1.00
2015,03,04,05,57,1.00
2015,03,04,05,58,1.00
2015,03,04,05,59,1.00
2015,03,04,06,00,1.10
2015,03,04,06,01,1.10
2015,03,04,06,02,1.10
2015,03,04,06,03,1.10
2015,03,04,06,04,1.10
2015,03,04,06,05,1.20
2015,03,04,06,06,1.20
2015,03,04,06,07,1.20
2015,03,04,06,08,1.20
2015,03,04,06,09,1.20
2015,03,04,06,10,1.20
2015,03,04,06,11,1.20
2015,03,04,06,12,1.20
2015,03,04,06,13,1.30
2015,03,04,06,14,1.30
2015,03,04,06,15,1.30
2015,03,04,06,16,1.30
2015,03,04,06,17,1.30
2015,03,04,06,18,1.30
2015,03,04,06,19,1.30
2015,03,04,06,20,1.20
2015,03,04,06,21,1.20
2015,03,04,06,22,1.20
2015,03,04,06,23,1.10
2015,03,04,06,24,1.10
2015,03,04,06,25,1.00
2015,03,04,06,26,1.00
2015,03,04,06,27,1.00
2015,03,04,06,28,1.00
2015,03,04,06,29,0.90
2015,03,04,06,30,0.90
2015,03,04,06,31,0.90
2015,03,04,06,32,0.80
2015,03,04,06,33,0.80
2015,03,04,06,34,0.80
2015,03,04,06,35,0.80
2015,03,04,06,36,0.80
2015,03,04,06,37,0.80
2015,03,04,06,38,0.80
2015,03,04,06,39,0.80
2015,03,04,06,40,0.80
2015,03,04,06,41,0.80
2015,03,04,06,42,0.80
2015,03,04,06,43,0.80
2015,03,04,06,44,0.80
2015,03,04,06,45,0.80
2015,03,04,06,46,0.80
2015,03,04,06,47,0.90
2015,03,04,06,48,0.90
2015,03,04,06,49,1.00
2015,03,04,06,50,1.00
2015,03,04,06,51,1.00
2015,03,04,06,52,1.10
2015,03,04,06,53,1.10
2015,03,04,06,54,1.10
2015,03,04,06,55,1.20
2015,03,04,06,56,1.20
2015,03,04,06,57,1.20
2015,03,04,06,58,1.20
2015,03,04,06,59,1.20
2015,03,04,07,00,1.20
2015,03,04,07,01,1.20
2015,03,04,07,02,1.20
2015,03,04,07,03,1.20
2015,03,04,07,04,1.20
2015,03,04,07,05,1.20
2015,03,04,07,06,1.30
2015,03,04,07,07,1.30
2015,03,04,07,08,1.30
2015,03,04,07,09,1.30
2015,03,04,07,10,1.30
2015,03,04,07,11,1.30
2015,03,04,07,12,1.40
2015,03,04,07,13,1.40
2015,03,04,07,14,1.50
2015,03,04,07,15,1.50
2015,03,04,07,16,1.50
2015,03,04,07,17,1.60
2015,03,04,07,18,1.60
2015,03,04,07,19,1.60
2015,03,04,07,20,1.60
2015,03,04,07,21,1.60
2015,03,04,07,22,1.70
2015,03,04,07,23,1.70
2015,03,04,07,24,1.70
2015,03,04,07,25,1.70
2015,03,04,07,26,1.70
2015,03,04,07,27,1.70
2015,03,04,07,28,1.70
2015,03,04,07,29,1.70
2015,03,04,07,30,1.70
2015,03,04,07,31,1.80
2015,03,04,07,32,1.80
2015,03,04,07,33,1.80
2015,03,04,07,34,1.80
2015,03,04,07,35,1.80
2015,03,04,07,36,1.90
2015,03,04,07,37,1.90
2015,03,04,07,38,1.90
2015,03,04,07,39,1.90
2015,03,04,07,40,2.00
2015,03,04,07,41,2.00
2015,03,04,07,42,2.00
2015,03,04,07,43,2.00
2015,03,04,07,44,2.10
2015,03,04,07,45,2.10
2015,03,04,07,46,2.10
2015,03,04,07,47,2.10
2015,03,04,07,48,2.10
2015,03,04,07,49,2.10
2015,03,04,07,50,2.00
2015,03,04,07,51,2.00
2015,03,04,07,52,2.00
2015,03,04,07,53,2.00
2015,03,04,07,54,2.00
2015,03,04,07,55,2.00
2015,03,04,07,56,2.00
2015,03,04,07,57,2.00
2015,03,04,07,58,2.00
2015,03,04,07,59,2.10
2015,03,04,08,00,2.10
2015,03,04,08,01,2.10
2015,03,04,08,02,2.20
2015,03,04,08,03,2.20
2015,03,04,08,04,2.20
2015,03,04,08,05,2.20
2015,03,04,08,06,2.20
2015,03,04,08,07,2.30
2015,03,04,08,08,2.30
2015,03,04,08,09,2.40
2015,03,04,08,10,2.40
2015,03,04,08,11,2.50
2015,03,04,08,12,2.50
2015,03,04,08,13,2.60
2015,03,04,08,14,2.60
2015,03,04,08,15,2.70
2015,03,04,08,16,2.70
2015,03,04,08,17,2.70
2015,03,04,08,18,2.80
2015,03,04,08,19,2.80
2015,03,04,08,20,2.90
2015,03,04,08,21,2.90
2015,03,04,08,22,2.90
2015,03,04,08,23,2.90
2015,03,04,08,24,3.00
2015,03,04,08,25,3.10
2015,03,04,08,26,3.10
2015,03,04,08,27,3.10
2015,03,04,08,28,3.10
2015,03,04,08,29,3.10
2015,03,04,08,30,3.10
2015,03,04,08,31,3.10
2015,03,04,08,32,3.20
2015,03,04,08,33,3.20
2015,03,04,08,34,3.20
2015,03,04,08,35,3.20
2015,03,04,08,36,3.30
2015,03,04,08,37,3.30
2015,03,04,08,38,3.30
2015,03,04,08,39,3.30
2015,03,04,08,40,3.30
2015,03,04,08,41,3.40
2015,03,04,08,42,3.40
2015,03,04,08,43,3.50
2015,03,04,08,44,3.50
2015,03,04,08,45,3.60
2015,03,04,08,46,3.70
2015,03,04,08,47,3.70
2015,03,04,08,48,3.80
2015,03,04,08,49,3.80
2015,03,04,08,50,3.80
2015,03,04,08,51,3.80
2015,03,04,08,52,3.90
2015,03,04,08,53,3.90
2015,03,04,08,54,3.90
2015,03,04,08,55,3.90
2015,03,04,08,56,3.90
2015,03,04,08,57,3.90
2015,03,04,08,58,3.90
2015,03,04,08,59,4.00
2015,03,04,09,00,4.00
2015,03,04,09,01,4.10
2015,03,04,09,02,4.10
2015,03,04,09,03,4.20
2015,03,04,09,04,4.20
2015,03,04,09,05,4.20
2015,03,04,09,06,4.30
2015,03,04,09,07,4.30
2015,03,04,09,08,4.40
2015,03,04,09,09,4.50
2015,03,04,09,10,4.50
2015,03,04,09,11,4.60
2015,03,04,09,12,4.60
2015,03,04,09,13,4.60
2015,03,04,09,14,4.70
2015,03,04,09,15,4.70
2015,03,04,09,16,4.80
2015,03,04,09,17,4.80
2015,03,04,09,18,4.90
2015,03,04,09,19,5.00
2015,03,04,09,20,5.10
2015,03,04,09,21,5.10
2015,03,04,09,22,5.10
2015,03,04,09,23,5.20
2015,03,04,09,24,5.20
2015,03,04,09,25,5.30
2015,03,04,09,26,5.30
2015,03,04,09,27,5.30
2015,03,04,09,28,5.30
2015,03,04,09,29,5.30
2015,03,04,09,30,5.30
2015,03,04,09,31,5.30
2015,03,04,09,32,5.40
2015,03,04,09,33,5.40
2015,03,04,09,34,5.50
2015,03,04,09,35,5.50
2015,03,04,09,36,5.70
2015,03,04,09,37,5.70
2015,03,04,09,38,5.80
2015,03,04,09,39,5.90
2015,03,04,09,40,6.00
2015,03,04,09,41,6.10
2015,03,04,09,42,6.10
2015,03,04,09,43,6.10
2015,03,04,09,44,6.20
2015,03,04,09,45,6.20
2015,03,04,09,46,6.30
2015,03,04,09,47,6.40
2015,03,04,09,48,6.50
2015,03,04,09,49,6.60
2015,03,04,09,50,6.70
2015,03,04,09,51,6.70
2015,03,04,09,52,6.80
2015,03,04,09,53,6.80
2015,03,04,09,54,6.90
2015,03,04,09,55,7.00
2015,03,04,09,56,7.00
2015,03,04,09,57,7.10
2015,03,04,09,58,7.20
2015,03,04,09,59,7.20
2015,03,04,10,00,7.30
2015,03,04,10,01,7.20
2015,03,04,10,02,7.20
2015,03,04,10,03,7.20
2015,03,04,10,04,7.20
2015,03,04,10,05,7.20
2015,03,04,10,06,7.20
2015,03,04,10,07,7.10
2015,03,04,10,08,7.10
2015,03,04,10,09,7.20
2015,03,04,10,10,7.20
2015,03,04,10,11,7.30
2015,03,04,10,12,7.30
2015,03,04,10,13,7.30
2015,03,04,10,14,7.30
2015,03,04,10,15,7.30
2015,03,04,10,16,7.40
2015,03,04,10,17,7.50
2015,03,04,10,18,7.50
2015,03,04,10,19,7.60
2015,03,04,10,20,7.60
2015,03,04,10,21,7.60
2015,03,04,10,22,7.70
2015,03,04,10,23,7.60
2015,03,04,10,24,7.60
2015,03,04,10,25,7.70
2015,03,04,10,26,7.70
2015,03,04,10,27,7.80
2015,03,04,10,28,7.80
2015,03,04,10,29,7.70
2015,03,04,10,30,7.70
2015,03,04,10,31,7.70
2015,03,04,10,32,7.70
2015,03,04,10,33,7.80
2015,03,04,10,34,7.80
2015,03,04,10,35,7.80
2015,03,04,10,36,7.90
2015,03,04,10,37,8.00
2015,03,04,10,38,8.00
2015,03,04,10,39,8.00
2015,03,04,10,40,8.00
2015,03,04,10,41,8.00
2015,03,04,10,42,8.00
2015,03,04,10,43,8.00
2015,03,04,10,44,8.10
2015,03,04,10,45,8.00
2015,03,04,10,46,8.00
2015,03,04,10,47,8.10
2015,03,04,10,48,8.20
2015,03,04,10,49,8.20
2015,03,04,10,50,8.10
2015,03,04,10,51,8.00
2015,03,04,10,52,8.00
2015,03,04,10,53,8.00
2015,03,04,10,54,8.00
2015,03,04,10,55,8.10
2015,03,04,10,56,8.10
2015,03,04,10,57,8.20
2015,03,04,10,58,8.20
2015,03,04,10,59,8.20
2015,03,04,11,00,8.10
2015,03,04,11,01,8.20
2015,03,04,11,02,8.20
2015,03,04,11,03,8.20
2015,03,04,11,04,8.10
2015,03,04,11,05,8.10
2015,03,04,11,06,8.00
2015,03,04,11,07,8.00
2015,03,04,11,08,8.00
2015,03,04,11,09,8.00
2015,03,04,11,10,8.00
2015,03,04,11,11,8.00
2015,03,04,11,12,8.00
2015,03,04,11,13,8.10
2015,03,04,11,14,8.10
2015,03,04,11,15,8.10
2015,03,04,11,16,8.10
2015,03,04,11,17,8.10
2015,03,04,11,18,8.10
2015,03,04,11,19,8.10
2015,03,04,11,20,8.20
2015,03,04,11,21,8.20
2015,03,04,11,22,8.20
2015,03,04,11,23,8.20
2015,03,04,11,24,8.30
2015,03,04,11,25,8.40
2015,03,04,11,26,8.50
2015,03,04,11,27,8.50
2015,03,04,11,28,8.60
2015,03,04,11,29,8.70
2015,03,04,11,30,8.70
2015,03,04,11,31,8.80
2015,03,04,11,32,8.90
2015,03,04,11,33,8.90
2015,03,04,11,34,8.80
2015,03,04,11,35,8.90
2015,03,04,11,36,8.90
2015,03,04,11,37,8.90
2015,03,04,11,38,9.00
2015,03,04,11,39,9.00
2015,03,04,11,40,9.00
2015,03,04,11,41,9.00
2015,03,04,11,42,9.00
2015,03,04,11,43,8.90
2015,03,04,11,44,8.80
2015,03,04,11,45,8.80
2015,03,04,11,46,8.90
2015,03,04,11,47,8.90
2015,03,04,11,48,8.90
2015,03,04,11,49,9.00
2015,03,04,11,50,8.90
2015,03,04,11,51,8.90
2015,03,04,11,52,8.90
2015,03,04,11,53,8.90
2015,03,04,11,54,8.90
2015,03,04,11,55,9.00
2015,03,04,11,56,9.00
2015,03,04,11,57,9.00
2015,03,04,11,58,8.90
2015,03,04,11,59,8.90
2015,03,04,12,00,9.00
2015,03,04,12,01,9.10
2015,03,04,12,02,9.20
2015,03,04,12,03,9.20
2015,03,04,12,04,9.20
2015,03,04,12,05,9.10
2015,03,04,12,06,9.00
2015,03,04,12,07,9.00
2015,03,04,12,08,9.10
2015,03,04,12,09,9.30
2015,03,04,12,10,9.30
2015,03,04,12,11,9.40
2015,03,04,12,12,9.50
2015,03,04,12,13,9.50
2015,03,04,12,14,9.60
2015,03,04,12,15,9.50
2015,03,04,12,16,9.40
2015,03,04,12,17,9.30
2015,03,04,12,18,9.30
2015,03,04,12,19,9.30
2015,03,04,12,20,9.20
2015,03,04,12,21,9.30
2015,03,04,12,22,9.30
2015,03,04,12,23,9.20
2015,03,04,12,24,9.30
2015,03,04,12,25,9.30
2015,03,04,12,26,9.30
2015,03,04,12,27,9.30
2015,03,04,12,28,9.30
2015,03,04,12,29,9.30
2015,03,04,12,30,9.20
2015,03,04,12,31,9.30
2015,03,04,12,32,9.30
2015,03,04,12,33,9.40
2015,03,04,12,34,9.40
2015,03,04,12,35,9.50
2015,03,04,12,36,9.50
2015,03,04,12,37,9.50
2015,03,04,12,38,9.50
2015,03,04,12,39,9.50
2015,03,04,12,40,9.50
2015,03,04,12,41,9.50
2015,03,04,12,42,9.40
2015,03,04,12,43,9.30
2015,03,04,12,44,9.20
2015,03,04,12,45,9.20
2015,03,04,12,46,9.00
2015,03,04,12,47,8.90
2015,03,04,12,48,8.90
2015,03,04,12,49,8.90
2015,03,04,12,50,8.80
2015,03,04,12,51,8.70
2015,03,04,12,52,8.70
2015,03,04,12,53,8.70
2015,03,04,12,54,8.70
2015,03,04,12,55,8.70
2015,03,04,12,56,8.60
2015,03,04,12,57,8.60
2015,03,04,12,58,8.50
2015,03,04,12,59,8.40
2015,03,04,13,00,8.30
2015,03,04,13,01,8.30
2015,03,04,13,02,8.30
2015,03,04,13,03,8.30
2015,03,04,13,04,8.30
2015,03,04,13,05,8.30
2015,03,04,13,06,8.30
2015,03,04,13,07,8.30
2015,03,04,13,08,8.40
2015,03,04,13,09,8.40
2015,03,04,13,10,8.40
2015,03,04,13,11,8.40
2015,03,04,13,12,8.40
2015,03,04,13,13,8.40
2015,03,04,13,14,8.50
2015,03,04,13,15,8.50
2015,03,04,13,16,8.50
2015,03,04,13,17,8.50
2015,03,04,13,18,8.50
2015,03,04,13,19,8.50
2015,03,04,13,20,8.60
2015,03,04,13,21,8.60
2015,03,04,13,22,8.60
2015,03,04,13,23,8.60
2015,03,04,13,24,8.70
2015,03,04,13,25,8.70
2015,03,04,13,26,8.70
2015,03,04,13,27,8.80
2015,03,04,13,28,8.80
2015,03,04,13,29,8.80
2015,03,04,13,30,8.70
2015,03,04,13,31,8.70
2015,03,04,13,32,8.70
2015,03,04,13,33,8.70
2015,03,04,13,34,8.70
2015,03,04,13,35,8.70
2015,03,04,13,36,8.80
2015,03,04,13,37,8.90
2015,03,04,13,38,8.90
2015,03,04,13,39,8.90
2015,03,04,13,40,9.00
2015,03,04,13,41,9.00
2015,03,04,13,42,9.00
2015,03,04,13,43,9.00
2015,03,04,13,44,9.00
2015,03,04,13,45,9.10
2015,03,04,13,46,9.20
2015,03,04,13,47,9.20
2015,03,04,13,48,9.10
2015,03,04,13,49,9.20
2015,03,04,13,50,9.20
2015,03,04,13,51,9.20
2015,03,04,13,52,9.20
2015,03,04,13,53,9.20
2015,03,04,13,54,9.30
2015,03,04,13,55,9.30
2015,03,04,13,56,9.40
2015,03,04,13,57,9.40
2015,03,04,13,58,9.40
2015,03,04,13,59,9.50
2015,03,04,14,00,9.50
2015,03,04,14,01,9.60
2015,03,04,14,02,9.70
2015,03,04,14,03,9.60
2015,03,04,14,04,9.50
2015,03,04,14,05,9.50
2015,03,04,14,06,9.50
2015,03,04,14,07,9.50
2015,03,04,14,08,9.60
2015,03,04,14,09,9.60
2015,03,04,14,10,9.50
2015,03,04,14,11,9.40
2015,03,04,14,12,9.40
2015,03,04,14,13,9.40
2015,03,04,14,14,9.40
2015,03,04,14,15,9.40
2015,03,04,14,16,9.40
2015,03,04,14,17,9.40
2015,03,04,14,18,9.40
2015,03,04,14,19,9.40
2015,03,04,14,20,9.40
2015,03,04,14,21,9.40
2015,03,04,14,22,9.40
2015,03,04,14,23,9.40
2015,03,04,14,24,9.30
2015,03,04,14,25,9.30
2015,03,04,14,26,9.30
2015,03,04,14,27,9.20
2015,03,04,14,28,9.20
2015,03,04,14,29,9.30
2015,03,04,14,30,9.30
2015,03,04,14,31,9.30
2015,03,04,14,32,9.30
2015,03,04,14,33,9.30
2015,03,04,14,34,9.40
2015,03,04,14,35,9.40
2015,03,04,14,36,9.40
2015,03,04,14,37,9.50
2015,03,04,14,38,9.50
2015,03,04,14,39,9.50
2015,03,04,14,40,9.40
2015,03,04,14,41,9.40
2015,03,04,14,42,9.30
2015,03,04,14,43,9.30
2015,03,04,14,44,9.30
2015,03,04,14,45,9.30
2015,03,04,14,46,9.30
2015,03,04,14,47,9.20
2015,03,04,14,48,9.30
2015,03,04,14,49,9.30
2015,03,04,14,50,9.30
2015,03,04,14,51,9.30
2015,03,04,14,52,9.40
2015,03,04,14,53,9.40
2015,03,04,14,54,9.30
2015,03,04,14,55,9.20
2015,03,04,14,56,9.20
2015,03,04,14,57,9.20
2015,03,04,14,58,9.20
2015,03,04,14,59,9.20
2015,03,04,15,00,9.20
2015,03,04,15,01,9.20
2015,03,04,15,02,9.20
2015,03,04,15,03,9.30
2015,03,04,15,04,9.30
2015,03,04,15,05,9.30
2015,03,04,15,06,9.40
2015,03,04,15,07,9.40
2015,03,04,15,08,9.40
2015,03,04,15,09,9.40
2015,03,04,15,10,9.40
2015,03,04,15,11,9.40
2015,03,04,15,12,9.40
2015,03,04,15,13,9.50
2015,03,04,15,14,9.50
2015,03,04,15,15,9.60
2015,03,04,15,16,9.60
2015,03,04,15,17,9.60
2015,03,04,15,18,9.70
2015,03,04,15,19,9.70
2015,03,04,15,20,9.70
2015,03,04,15,21,9.70
2015,03,04,15,22,9.70
2015,03,04,15,23,9.80
2015,03,04,15,24,9.80
2015,03,04,15,25,9.90
2015,03,04,15,26,9.90
2015,03,04,15,27,9.90
2015,03,04,15,28,9.90
2015,03,04,15,29,9.90
2015,03,04,15,30,9.80
2015,03,04,15,31,9.90
2015,03,04,15,32,9.90
2015,03,04,15,33,9.90
2015,03,04,15,34,9.90
2015,03,04,15,35,9.90
2015,03,04,15,36,9.90
2015,03,04,15,37,10.00
2015,03,04,15,38,10.10
2015,03,04,15,39,10.10
2015,03,04,15,40,10.10
2015,03,04,15,41,10.10
2015,03,04,15,42,10.10
2015,03,04,15,43,10.10
2015,03,04,15,44,10.10
2015,03,04,15,45,10.10
2015,03,04,15,46,10.10
2015,03,04,15,47,10.10
2015,03,04,15,48,10.10
2015,03,04,15,49,10.10
2015,03,04,15,50,10.10
2015,03,04,15,51,10.10
2015,03,04,15,52,10.00
2015,03,04,15,53,9.90
2015,03,04,15,54,9.90
2015,03,04,15,55,9.80
2015,03,04,15,56,9.80
2015,03,04,15,57,9.80
2015,03,04,15,58,9.80
2015,03,04,15,59,9.80
2015,03,04,16,00,9.80
2015,03,04,16,01,9.80
2015,03,04,16,02,9.80
2015,03,04,16,03,9.80
2015,03,04,16,04,9.70
2015,03,04,16,05,9.70
2015,03,04,16,06,9.70
2015,03,04,16,07,9.70
2015,03,04,16,08,9.70
2015,03,04,16,09,9.70
2015,03,04,16,10,9.60
2015,03,04,16,11,9.50
2015,03,04,16,12,9.50
2015,03,04,16,13,9.50
2015,03,04,16,14,9.40
2015,03,04,16,15,9.40
2015,03,04,16,16,9.40
2015,03,04,16,17,9.30
2015,03,04,16,18,9.30
2015,03,04,16,19,9.20
2015,03,04,16,20,9.20
2015,03,04,16,21,9.20
2015,03,04,16,22,9.10
2015,03,04,16,23,9.10
2015,03,04,16,24,9.10
2015,03,04,16,25,9.10
2015,03,04,16,26,9.10
2015,03,04,16,27,9.10
2015,03,04,16,28,9.10
2015,03,04,16,29,9.10
2015,03,04,16,30,9.00
2015,03,04,16,31,9.00
2015,03,04,16,32,8.90
2015,03,04,16,33,8.90
2015,03,04,16,34,8.80
2015,03,04,16,35,8.80
2015,03,04,16,36,8.70
2015,03,04,16,37,8.70
2015,03,04,16,38,8.70
2015,03,04,16,39,8.70
2015,03,04,16,40,8.70
2015,03,04,16,41,8.60
2015,03,04,16,42,8.60
2015,03,04,16,43,8.60
2015,03,04,16,44,8.60
2015,03,04,16,45,8.60
2015,03,04,16,46,8.60
2015,03,04,16,47,8.60
2015,03,04,16,48,8.60
2015,03,04,16,49,8.60
2015,03,04,16,50,8.70
2015,03,04,16,51,8.70
2015,03,04,16,52,8.70
2015,03,04,16,53,8.60
2015,03,04,16,54,8.60
2015,03,04,16,55,8.60
2015,03,04,16,56,8.60
2015,03,04,16,57,8.60
2015,03,04,16,58,8.50
2015,03,04,16,59,8.50
2015,03,04,17,00,8.60
2015,03,04,17,01,8.60
2015,03,04,17,02,8.60
2015,03,04,17,03,8.60
2015,03,04,17,04,8.60
2015,03,04,17,05,8.50
2015,03,04,17,06,8.50
2015,03,04,17,07,8.50
2015,03,04,17,08,8.50
2015,03,04,17,09,8.40
2015,03,04,17,10,8.40
2015,03,04,17,11,8.40
2015,03,04,17,12,8.40
2015,03,04,17,13,8.40
2015,03,04,17,14,8.40
2015,03,04,17,15,8.40
2015,03,04,17,16,8.40
2015,03,04,17,17,8.30
2015,03,04,17,18,8.30
2015,03,04,17,19,8.30
2015,03,04,17,20,8.20
2015,03,04,17,21,8.20
2015,03,04,17,22,8.20
2015,03,04,17,23,8.20
2015,03,04,17,24,8.20
2015,03,04,17,25,8.20
2015,03,04,17,26,8.10
2015,03,04,17,27,8.10
2015,03,04,17,28,8.10
2015,03,04,17,29,8.00
2015,03,04,17,30,8.00
2015,03,04,17,31,8.00
2015,03,04,17,32,8.00
2015,03,04,17,33,8.00
2015,03,04,17,34,8.00
2015,03,04,17,35,7.90
2015,03,04,17,36,7.90
2015,03,04,17,37,7.90
2015,03,04,17,38,7.90
2015,03,04,17,39,7.80
2015,03,04,17,40,7.80
2015,03,04,17,41,7.80
2015,03,04,17,42,7.80
2015,03,04,17,43,7.80
2015,03,04,17,44,7.70
2015,03,04,17,45,7.70
2015,03,04,17,46,7.70
2015,03,04,17,47,7.60
2015,03,04,17,48,7.60
2015,03,04,17,49,7.60
2015,03,04,17,50,7.50
2015,03,04,17,51,7.50
2015,03,04,17,52,7.50
2015,03,04,17,53,7.50
2015,03,04,17,54,7.40
2015,03,04,17,55,7.40
2015,03,04,17,56,7.40
2015,03,04,17,57,7.30
2015,03,04,17,58,7.30
2015,03,04,17,59,7.30
2015,03,04,18,00,7.30
2015,03,04,18,01,7.30
2015,03,04,18,02,7.30
2015,03,04,18,03,7.20
2015,03,04,18,04,7.20
2015,03,04,18,05,7.20
2015,03,04,18,06,7.20